CAPE
0 0 0 0 0 0 0 0 0 0 0 0 0 0 0 0 0 0 0 0 0 0 0 0 0 0 0 0 0 0 0 0 0 0 0 0 0 0 0 0 0 0 0
0 0 0 0 0 0 0 0 0 0 0 0 0 0 0 0 0 0 0 0 0 0 0 0 0 0 0 0 0 0 0 0 0 0 0 0 0 0 0 0 0 0 0
0 0 0 0 0 0 0 0 0 0 0 0 0 0 0 0 0 0 0 0 0 0 0 0 0 0 0 0 0 0 0 0 0 0 0 0 0 0 0 0 0 0 0
0 0 0 0 0 0 0 0 0 0 0 0 0 0 0 0 0 0 0 0 0 0 0 0 0 0 0 0 0 0 0 0 0 0 0 0 0 0 0 0 0 0 0
0 0 0 0 0 0 0 0 0 0 0 0 0 0 0 0 0 0 0 0 0 0 0 0 0 0 0 0 0 0 0 0 0 0 0 0 0 0 0 0 0 0 0
0 0 0 0 0 0 0 0 0 0 0 0 0 0 0 0 0 0 0 0 0 0 0 0 0 0 0 0 0 0 0 0 0 0 0 0 0 0 0 0 0 0 0
0 0 0 0 0 0 0 0 0 0 0 0 0 0 0 0 0 0 0 0 0 0 0 0 0 0 0 0 0 0 0 0 0 0 0 0 0 0 0 0 0 0 0
0 0 0 0 0 0 0 0 0 0 0 0 0 0 0 0 0 0 0 0 0 0 0 0 0 0 0 0 0 0 0 0 0 0 0 0 0 0 0 0 0 0 0
0 0 0 0 0 0 0 0 0 0 0 0 0 0 0 0 0 0 0 0 0 0 0 0 0 0 0 0 0 0 0 0 0 0 0 0 0 0 0 0 0 0 0
0 0 0 0 0 0 0 0 0 0 0 0 0 0 0 0 0 0 0 0 0 0 0 0 0 0 0 0 0 0 0 0 0 0 0 0 0 0 0 0 0 0 0
0 0 0 0 0 0 0 0 0 0 0 0 0 0 0 0 0 0 0 0 0 0 0 0 0 0 0 0 0 0 0 0 0 0 0 0 0 0 0 0 0 0 0
0 0 0 0 0 0 0 0 0 0 0 0 0 0 0 0 0 0 0 0 0 0 0 0 0 0 0 0 0 0 0 0 0 0 0 0 0 0 0 0 0 0 0
0 0 0 0 0 0 0 0 0 0 0 0 0 0 0 0 0 0 0 0 0 0 0 0 0 0 0 0 0 0 0 0 0 0 0 0 0 0 0 0 0 0 0
0 0 0 0 0 0 0 0 0 0 0 0 0 0 0 0 0 0 0 0 0 0 0 0 0 0 0 0 0 0 0 0 0 0 0 0 0 0 0 0 0 0 0
0 0 0 0 0 0 0 0 0 0 0 0 0 0 0 0 0 0 0 0 0 0 0 0 0 0 0 0 0 0 0 0 0 0 0 0 0 0 0 0 0 0 0
0 0 0 0 0 0 0 0 0 0 0 0 0 0 0 0 0 0 0 0 0 1 0 0 0 0 0 0 0 0 0 0 0 0 0 0 0 0 0 0 0 0 0
0 0 0 0 0 0 0 0 0 0 0 0 0 0 0 0 0 0 0 1 3 0 0 0 0 0 0 0 0 0 0 0 0 0 0 0 0 0 0 0 0 0 0
0 0 0 0 0 0 0 0 0 0 0 0 0 0 1 1 2 2 3 2 0 0 0 0 0 0 0 0 0 0 0 0 0 0 0 0 0 0 0 0 0 0 0
0 0 0 0 0 0 0 0 0 0 0 0 0 0 0 3 3 1 1 0 0 0 0 0 0 0 0 0 0 0 0 0 0 0 0 0 0 0 0 0 0 0 0
0 0 0 0 0 0 0 0 0 0 0 0 0 0 0 0 0 0 0 0 0 0 0 0 0 0 0 0 0 0 0 0 0 0 0 0 0 0 0 0 0 0 0
0 0 0 0 0 0 0 0 0 0 0 0 0 0 0 0 0 0 0 0 0 0 0 0 0 0 0 0 0 0 0 0 0 0 0 0 0 0 0 0 0 0 0
0 0 0 0 0 0 0 0 0 0 0 0 0 0 0 0 0 0 0 0 0 0 0 0 0 0 0 0 0 0 0 0 0 0 0 0 0 0 0 0 0 0 0
0 0 0 0 0 0 0 0 0 0 0 0 0 0 0 0 0 0 0 0 0 0 0 0 0 0 0 0 0 0 0 0 0 0 0 0 0 0 0 0 0 0 0
0 0 0 0 0 0 0 0 0 0 0 0 0 0 0 0 0 0 0 0 0 0 0 0 0 0 0 0 0 0 0 0 0 0 0 0 0 0 0 0 0 0 0
0 0 0 0 0 0 0 0 0 0 0 0 0 0 0 0 0 0 0 0 0 0 0 0 0 0 0 0 0 0 0 0 0 0 0 0 0 0 0 0 0 0 0
0 0 0 0 0 0 0 0 0 0 0 0 0 0 0 0 0 0 0 0 0 0 0 0 0 0 0 0 0 0 0 0 0 0 0 0 0 0 0 0 0 0 0
CIN
0 0 0 0 0 0 0 0 0 0 0 0 0 0 0 0 0 0 0 0 0 0 0 0 0 0 0 0 0 0 0 0 0 0 0 0 0 0 0 0 0 0 0
0 0 0 0 0 0 0 0 0 0 0 0 0 0 0 0 0 0 0 0 0 0 0 0 0 0 0 0 0 0 0 0 0 0 0 0 0 0 0 0 0 0 0
0 0 0 0 0 0 0 0 0 0 0 0 0 0 0 0 0 0 0 0 0 0 0 0 0 0 0 0 0 0 0 0 0 0 0 0 0 0 0 0 0 0 0
0 0 0 0 0 0 0 0 0 0 0 0 0 0 0 0 0 0 0 0 0 0 0 0 0 0 0 0 0 0 0 0 0 0 0 0 0 0 0 0 0 0 0
0 0 0 0 0 0 0 0 0 0 0 0 0 0 0 0 0 0 0 0 0 0 0 0 0 0 0 0 0 0 0 0 0 0 0 0 0 0 0 0 0 0 0
0 0 0 0 0 0 0 0 0 0 0 0 0 0 0 0 0 0 0 0 0 0 0 0 0 0 0 0 0 0 0 0 0 0 0 0 0 0 0 0 0 0 0
0 0 0 0 0 0 0 0 0 0 0 0 0 0 0 0 0 0 0 0 0 0 0 0 0 0 0 0 0 0 0 0 0 0 0 0 0 0 0 0 0 0 0
0 0 0 0 0 0 0 0 0 0 0 0 0 0 0 0 0 0 0 0 0 0 0 0 0 0 0 0 0 0 0 0 0 0 0 0 0 0 0 0 0 0 0
0 0 0 0 0 0 0 0 0 0 0 0 0 0 0 0 0 0 0 0 0 0 0 0 0 0 0 0 0 0 0 0 0 0 0 0 0 0 0 0 0 0 0
0 0 0 0 0 0 0 0 0 0 0 0 0 0 0 0 0 0 0 0 0 0 0 0 0 0 0 0 0 0 0 0 0 0 0 0 0 0 0 0 0 0 0
0 0 0 0 0 0 0 0 0 0 0 0 0 0 0 0 0 0 0 0 0 0 0 0 0 0 0 0 0 0 0 0 0 0 0 0 0 0 0 0 0 0 0
0 0 0 0 0 0 0 0 0 0 0 0 0 0 0 0 0 0 0 0 0 0 0 0 0 0 0 0 0 0 0 0 0 0 0 0 0 0 0 0 0 0 0
0 0 0 0 0 0 0 0 0 0 0 0 0 0 0 0 0 0 0 0 0 0 0 0 0 0 0 0 0 0 -1 0 0 0 0 0 0 0 0 0 0 0 0
0 0 0 0 0 0 0 0 0 0 0 0 0 0 0 0 0 0 0 0 0 0 0 0 0 0 0 0 0 0 0 0 0 0 0 0 0 0 0 0 0 0 0
0 0 0 0 0 0 0 0 0 0 0 0 0 0 0 0 0 0 0 0 0 0 0 0 0 0 0 0 0 0 0 0 0 0 0 0 0 0 0 0 0 0 0
0 0 0 0 0 0 0 0 0 0 0 0 0 0 0 0 0 0 0 0 0 0 0 0 0 0 0 0 0 0 0 0 0 0 0 0 0 0 0 0 0 0 0
0 0 0 0 0 0 0 0 0 0 0 0 0 0 0 0 0 0 0 0 0 0 0 0 0 0 0 0 0 0 0 0 0 0 0 0 0 0 0 0 0 0 0
0 0 0 0 0 0 0 0 0 0 0 0 0 0 0 0 0 0 0 0 -1 0 0 0 0 0 0 0 0 0 0 0 0 0 0 0 0 0 0 0 0 0 0
0 0 0 0 0 0 0 0 0 0 0 0 0 0 0 0 0 0 0 0 0 0 0 0 0 0 0 0 0 0 0 0 0 0 0 0 0 0 0 0 0 0 0
0 0 0 0 0 0 0 0 0 0 0 0 0 0 0 0 0 0 0 0 0 0 0 0 0 0 0 0 0 0 0 0 0 0 0 0 0 0 0 0 0 0 0
0 0 0 0 0 0 0 0 0 0 0 0 0 0 0 0 0 0 0 0 0 0 0 0 0 0 0 0 0 0 0 0 0 0 0 0 0 0 0 0 0 0 0
0 0 0 0 0 0 0 0 0 0 0 0 0 0 0 0 0 0 0 0 0 0 0 0 0 0 0 0 0 0 0 0 0 0 0 0 0 0 0 0 0 0 0
0 0 0 0 0 0 0 0 0 0 0 0 0 0 0 0 0 0 0 0 0 0 0 0 0 0 0 0 0 0 0 0 0 0 0 0 0 0 0 0 0 0 0
0 0 0 0 0 0 0 0 0 0 0 0 0 0 0 0 0 0 0 0 0 0 0 0 0 0 0 0 0 0 0 0 0 0 0 0 0 0 0 0 0 0 0
0 0 0 0 0 0 0 0 0 0 0 0 0 0 0 0 0 0 0 0 0 0 0 0 0 0 0 0 0 0 0 0 0 0 0 0 0 0 0 0 0 0 0
0 0 0 0 0 0 0 0 0 0 0 0 0 0 0 0 0 0 0 0 0 0 0 0 0 0 0 0 0 0 0 0 0 0 0 0 0 0 0 0 0 0 0
Wind_Speed
17 15 15 14 13 13 13 12 11 10 11 12 12 10 10 9 7 7 6 7 7 6 5 6 6 6 4 4 3 2 2 3 3 2 2 3 4 4 3 3 5 4 4
14 12 14 13 13 13 11 11 11 11 10 11 11 10 9 9 9 9 9 7 8 8 8 7 7 5 6 4 3 4 4 3 3 4 2 3 4 4 3 4 4 4 4
11 13 12 12 12 13 12 11 10 10 11 10 12 12 11 10 9 7 8 8 8 7 8 8 7 7 5 4 4 5 3 2 2 2 1 1 3 1 2 4 3 5 4
9 10 11 12 12 10 10 10 10 10 11 11 11 11 10 10 9 8 8 7 6 6 6 6 7 7 7 7 6 6 4 4 3 2 1 2 3 2 1 3 3 3 3
7 8 8 8 9 9 10 9 8 10 9 9 9 7 8 9 8 10 8 7 7 6 6 6 5 6 9 10 5 5 5 4 3 3 3 2 3 2 4 2 3 2 3
8 8 8 9 9 10 9 10 10 8 8 9 8 9 10 7 12 13 10 8 7 8 8 5 6 7 10 12 11 8 9 5 4 4 3 4 4 3 2 3 2 1 3
5 5 6 6 7 6 7 8 9 10 8 8 7 8 8 6 15 16 14 7 8 8 6 6 6 5 6 5 9 10 11 14 10 5 6 5 1 5 4 2 4 3 4
6 6 7 7 7 7 8 8 6 5 8 7 7 7 7 6 15 15 15 7 6 6 7 8 8 7 7 7 6 5 6 6 7 5 6 5 5 4 5 5 4 2 2
7 7 6 7 7 8 9 8 5 6 5 6 5 7 8 7 15 16 14 7 7 8 6 5 6 6 8 11 6 6 5 5 8 13 12 10 9 11 7 3 1 2 3
7 6 6 7 7 9 8 8 5 5 5 5 6 7 7 8 13 15 13 5 6 4 4 5 11 9 9 13 7 6 6 6 3 1 3 6 8 5 10 6 4 3 2
4 5 7 7 8 8 7 4 6 5 6 5 6 5 6 7 9 14 15 6 5 3 3 3 3 12 13 14 14 7 8 4 3 3 1 1 1 2 3 3 6 4 3
6 6 6 6 5 5 7 5 6 7 7 6 5 4 3 4 7 12 14 13 9 5 5 3 4 10 11 11 10 10 11 8 3 3 1 2 3 5 7 6 7 8 7
5 6 6 8 6 6 7 7 6 6 7 6 7 6 5 3 2 8 11 14 13 5 2 4 7 8 8 5 4 5 6 2 3 3 5 6 5 5 2 3 4 6 5
5 7 8 8 9 7 5 6 6 7 6 6 7 6 3 3 3 3 4 3 6 2 3 4 4 6 7 6 3 3 2 2 3 4 5 6 0 1 3 3 3 3 3
1 0 3 5 8 7 5 6 5 2 6 8 7 6 7 6 6 8 7 4 3 3 4 2 2 1 1 1 2 3 3 3 4 4 3 1 3 2 4 3 2 2 5
2 3 2 4 5 7 7 6 7 6 7 6 8 7 1 7 13 14 13 12 11 11 2 2 2 2 2 2 3 2 2 3 3 3 3 3 4 3 4 2 3 4 5
2 5 4 4 5 7 8 8 9 7 13 12 12 14 13 12 13 13 12 12 11 9 3 2 2 2 1 1 1 2 3 3 2 3 4 4 5 4 3 3 4 5 5
4 3 3 5 6 6 7 7 7 7 6 2 9 10 13 14 13 13 13 11 6 4 1 2 2 3 4 4 5 3 3 2 2 2 1 2 3 4 3 4 5 6 6
6 5 3 4 4 6 6 7 7 7 6 6 4 6 5 13 13 10 9 3 4 4 3 4 4 4 4 4 2 2 2 3 2 2 2 2 3 2 4 5 6 7 7
6 10 7 4 5 6 6 7 7 6 7 6 3 2 2 5 5 4 5 5 5 4 3 3 3 4 4 3 2 2 2 3 3 3 3 2 2 3 6 6 5 6 7
4 5 9 7 7 6 5 5 5 6 7 6 4 2 7 5 5 5 5 4 4 4 2 3 2 3 3 2 2 2 2 3 2 2 2 3 3 5 4 5 6 6 8
5 5 5 6 5 6 6 5 5 6 6 6 6 7 13 5 6 6 5 4 3 2 2 3 2 2 1 1 1 1 2 3 3 3 3 3 2 3 5 6 6 6 7
6 5 6 5 6 7 6 6 5 5 5 4 4 5 6 5 5 5 4 2 2 3 2 3 2 2 1 1 2 3 1 4 4 3 4 3 2 3 4 6 6 7 7
4 5 5 5 5 5 6 6 6 7 5 3 4 4 5 5 5 4 2 2 3 2 2 1 1 1 3 3 2 2 3 4 3 5 5 2 5 5 5 6 7 8 8
3 4 5 4 4 4 6 6 6 5 3 3 4 4 3 5 5 3 3 3 2 2 3 3 2 3 4 5 6 7 5 6 5 6 3 4 6 8 7 7 8 8 10
4 4 4 4 4 4 5 5 5 5 4 4 4 4 4 5 3 2 3 2 2 2 3 2 3 6 6 5 8 7 6 8 8 9 4 3 5 7 6 8 10 8 10
Wind_Direction
189 187 182 184 185 180 181 180 180 166 170 175 176 169 173 163 169 153 155 153 152 149 145 158 163 157 163 168 138 114 141 126 162 286 233 190 195 211 229 242 249 239 255
184 174 178 175 178 180 181 173 161 169 170 171 166 175 173 171 167 163 166 166 164 168 171 163 176 167 180 166 159 171 175 187 153 202 213 206 215 217 229 229 261 246 245
166 169 170 176 179 180 170 162 160 160 167 165 166 178 181 173 168 168 168 168 179 177 167 176 183 176 177 168 177 186 191 176 188 151 239 102 222 214 249 269 257 265 252
159 166 173 174 176 170 154 154 160 164 164 168 177 180 172 170 165 168 166 170 176 177 177 194 190 179 184 188 194 195 184 193 162 165 187 239 229 211 184 247 289 266 277
150 156 167 150 150 147 144 151 154 162 170 166 158 160 160 165 171 171 168 174 170 177 198 206 189 198 203 200 179 180 181 202 169 179 222 213 207 182 198 201 221 264 284
167 176 160 160 156 160 154 158 154 149 155 159 166 167 170 175 171 170 166 166 178 189 205 190 199 198 215 216 211 190 196 186 191 188 181 211 224 200 183 204 194 119 304
163 146 143 146 149 154 141 147 153 162 161 171 163 158 166 163 170 174 168 172 184 200 186 185 203 213 209 202 218 207 213 223 213 195 221 210 203 206 168 206 214 199 221
179 180 164 161 157 152 148 158 144 147 166 168 164 167 161 176 174 173 172 182 196 199 197 202 193 204 210 188 197 209 226 227 236 236 211 213 202 196 190 187 211 199 314
194 177 178 162 155 159 164 163 154 143 157 175 164 165 169 180 183 178 172 182 202 216 210 199 198 217 221 210 191 221 223 240 247 248 247 249 241 239 203 112 253 102 292
200 200 160 158 168 174 169 166 142 144 150 149 164 179 176 181 194 189 180 177 206 215 196 195 212 217 218 220 200 201 239 239 192 264 302 265 254 261 261 206 163 192 189
170 147 156 171 173 181 157 124 136 135 138 156 163 171 186 187 201 197 190 182 203 185 183 213 214 229 230 222 217 190 215 171 224 178 155 30 329 295 252 240 210 195 197
172 169 166 165 152 140 152 138 140 151 153 156 158 176 214 199 191 203 200 198 193 190 207 190 207 227 239 243 234 230 232 234 134 134 149 223 218 238 234 222 214 220 230
157 173 178 155 147 146 152 154 145 154 158 170 180 188 204 177 165 204 207 212 213 211 137 201 207 220 231 241 251 269 245 155 174 187 224 234 223 238 166 211 220 232 239
207 181 165 179 152 153 143 161 159 171 168 173 184 195 162 167 191 201 207 206 227 191 178 202 212 203 198 177 163 214 164 155 190 234 241 249 216 139 228 203 224 205 236
294 74 170 170 157 151 133 159 166 167 176 178 192 177 167 194 207 185 167 162 154 155 118 98 115 115 152 167 189 192 183 212 225 238 244 223 244 189 245 194 214 177 221
158 138 163 148 143 144 133 105 90 133 172 176 169 148 156 141 147 152 154 151 151 149 81 125 120 146 186 196 213 221 184 211 227 223 233 217 240 222 242 222 205 210 239
195 155 143 143 152 143 132 134 125 92 90 95 120 123 124 130 133 137 137 142 151 130 120 148 168 190 228 226 220 213 234 235 221 218 232 233 240 240 214 230 222 236 249
21 79 139 150 147 144 139 129 125 129 120 135 89 114 129 138 145 148 148 143 145 148 150 143 128 71 46 41 32 6 341 352 7 311 294 260 250 247 243 245 237 246 249
32 12 20 74 86 111 117 118 115 114 138 99 91 77 120 136 129 125 131 107 115 84 64 71 71 71 72 66 46 12 3 353 344 334 303 268 269 250 267 256 265 247 253
43 37 28 39 86 97 102 108 109 128 106 101 107 107 79 104 95 77 67 83 87 91 84 86 86 81 72 53 21 23 14 7 352 334 326 325 299 283 290 285 262 265 267
44 50 48 40 39 45 66 94 106 113 117 116 114 122 123 105 99 81 67 53 66 76 68 74 58 72 68 39 21 20 17 318 327 318 328 312 325 319 292 279 279 274 280
90 67 65 71 63 56 53 63 81 99 98 95 74 71 94 77 83 82 72 59 44 54 62 101 79 85 118 174 241 355 324 305 309 297 283 279 287 289 293 294 294 291 290
28 44 72 74 82 82 76 61 57 61 71 77 98 100 84 84 84 80 77 47 37 8 12 57 65 359 316 252 219 189 241 270 246 244 258 261 279 268 267 284 289 292 292
68 70 68 68 69 79 82 84 79 71 83 90 85 87 103 102 89 82 70 20 35 342 12 23 247 286 293 295 287 273 228 250 245 253 244 247 278 274 272 278 283 285 286
47 65 74 83 80 84 93 90 93 88 96 102 101 102 97 89 84 62 43 7 346 354 338 331 326 306 291 314 298 284 271 293 274 255 231 238 257 266 268 273 280 280 278
68 69 82 90 97 101 103 105 104 108 113 103 91 84 85 83 71 32 353 340 331 326 323 323 317 315 324 303 278 296 303 295 273 257 241 228 257 277 275 274 277 278 279